Location: Unspecified
(64.9000°N, 0.0000°E)
Time: 18:47:52
(UTC+00:00)

Transit 2A Rocket - Pass Details

Date: 20 June 2019
Orbit: 588 x 915 km, 66.7° (Epoch: 15 July)

Event Time Altitude Azimuth Distance (km) Brightness Sun altitude
Rises 13:39:26 0° 251° (WSW) 3,530 8.9 45.6°
Reaches altitude 10° 13:42:01 10° 252° (WSW) 2,567 8.4 45.4°
Maximum altitude 13:48:02 85° 342° (NNW) 865 6.1 45.1°
Drops below altitude 10° 13:53:36 10° 71° (ENE) 2,391 7.3 44.7°
Sets 13:55:56 0° 72° (ENE) 3,272 7.9 44.6°
